St. Petersburg, FL

8:52 PM EDT on April 26, 2017 (GMT -0400)
Whitted

Weather History for KSPG - November, 2014

Change the Weather History Date:

Thursday, November 27, 2014

  Actual Average Record
Temperature  
Mean Temperature 60 °F -  
Max Temperature 69 °F 76 °F 84 °F (1948)
Min Temperature 52 °F 62 °F -36 °F (1998)
Degree Days  
Heating Degree Days 4    
Growing Degree Days 10 (Base 50)    
Moisture  
Dew Point 45 °F    
Average Humidity 59    
Maximum Humidity 80    
Minimum Humidity 46    
Precipitation  
Precipitation 0.00 in - - ()
Sea Level Pressure  
Sea Level Pressure 30.25 in    
Wind  
Wind Speed 8 mph (North)    
Max Wind Speed 18 mph    
Max Gust Speed 25 mph    
Visibility 10 miles    
Events      
Averages and records for this station are not official NWS values.
T = Trace of Precipitation, MM = Missing Value Source: NWS Daily Summary

Daily Weather History Graph

Daily Weather History Graph

Search for Another Location

Airport or City:

Trip Planner

Search our weather history database for the weather conditions in past years. The results will help you decide how hot, cold, wet, or windy it might be!

Date:

Astronomy

Nov. 27, 2014 Rise Set
Actual Time 7:01 AM EST 5:35 PM EST
Civil Twilight 6:35 AM EST 6:00 PM EST
Nautical Twilight 6:07 AM EST 6:29 PM EST
Astronomical Twilight 5:38 AM EST 6:57 PM EST
Moon 11:26 AM EST 11:00 PM EST
Length of Visible Light 11h 24m
Length of Day
10h 34m
Waxing Crescent, 31% of the Moon is Illuminated
Nov 27
Waxing Crescent
Nov 29
First Quarter
Dec 6
Full
Dec 14
Last Quarter
Dec 21
New

Hourly Weather History & Observations

Time (EST) Temp. Dew Point Humidity Pressure Visibility Wind Dir Wind Speed Gust Speed Precip Events Conditions
12:53 AM 57.0 °F 44.1 °F 62% 30.22 in 10.0 mi North 6.9 mph - N/A   Clear
1:53 AM 57.0 °F 44.1 °F 62% 30.23 in 10.0 mi North 8.1 mph - N/A   Clear
2:53 AM 55.9 °F 43.0 °F 62% 30.25 in 10.0 mi NNW 3.5 mph - N/A   Clear
3:53 AM 57.0 °F 41.0 °F 55% 30.25 in 10.0 mi North 6.9 mph - N/A   Clear
4:53 AM 55.9 °F 44.1 °F 64% 30.25 in 10.0 mi NNW 3.5 mph - N/A   Clear
5:53 AM 52.0 °F 46.0 °F 80% 30.26 in 10.0 mi Calm Calm - N/A   Clear
6:53 AM 52.0 °F 46.0 °F 80% 30.27 in 10.0 mi Calm Calm - N/A   Clear
7:53 AM 55.0 °F 48.0 °F 77% 30.28 in 10.0 mi Calm Calm - N/A   Clear
8:53 AM 62.1 °F 46.9 °F 58% 30.28 in 10.0 mi SW 4.6 mph - N/A   Clear
9:53 AM 64.0 °F 50.0 °F 60% 30.29 in 10.0 mi South 8.1 mph - N/A   Clear
10:53 AM 66.0 °F 51.1 °F 59% 30.27 in 10.0 mi Variable 4.6 mph - N/A   Clear
11:53 AM 68.0 °F 53.1 °F 59% 30.24 in 10.0 mi NW 12.7 mph 18.4 mph N/A   Mostly Cloudy
12:53 PM 69.1 °F 51.1 °F 53% 30.21 in 10.0 mi NNW 10.4 mph 17.3 mph N/A   Partly Cloudy
1:53 PM 68.0 °F 46.9 °F 47% 30.19 in 10.0 mi North 16.1 mph - N/A   Clear
2:53 PM 64.9 °F 46.0 °F 50% 30.19 in 10.0 mi North 13.8 mph 25.3 mph N/A   Clear
3:53 PM 63.0 °F 42.1 °F 46% 30.20 in 10.0 mi North 13.8 mph 24.2 mph N/A   Clear
4:53 PM 62.1 °F 42.1 °F 48% 30.20 in 10.0 mi NNW 15.0 mph 21.9 mph N/A   Clear
5:53 PM 59.0 °F 42.1 °F 53% 30.22 in 10.0 mi North 12.7 mph 19.6 mph N/A   Clear
6:53 PM 57.9 °F 43.0 °F 58% 30.24 in 10.0 mi North 9.2 mph - N/A   Clear
7:53 PM 57.9 °F 43.0 °F 58% 30.25 in 10.0 mi North 13.8 mph - N/A   Clear
8:53 PM 57.9 °F 43.0 °F 58% 30.26 in 10.0 mi North 9.2 mph - N/A   Clear
9:53 PM 57.9 °F 44.1 °F 60% 30.27 in 10.0 mi North 13.8 mph 20.7 mph N/A   Clear
10:53 PM 57.0 °F 42.1 °F 57% 30.28 in 10.0 mi NNE 17.3 mph - N/A   Clear
11:53 PM 55.9 °F 39.9 °F 55% 30.28 in 10.0 mi NNE 18.4 mph 24.2 mph N/A   Clear